Temp
-8 -8 -8 -8 -8 -8 -8 -8 -9 -9 -9 -10 -10 -10 -10 -10 -10 -10 -11 -11 -11 -11 -11 -11 -11 -11 -12 -11 -11 -11 -11 -11 -11 -11 -11 -11 -11 -10 -11 -11 -11 -11 -11 -11 -10 -10 -10 -9 -9
-8 -8 -8 -8 -8 -8 -8 -9 -9 -9 -9 -10 -10 -10 -10 -10 -11 -11 -11 -11 -11 -12 -12 -12 -12 -12 -12 -12 -12 -12 -12 -12 -11 -11 -11 -11 -11 -11 -11 -11 -11 -11 -11 -11 -11 -10 -10 -10 -9
-8 -8 -8 -8 -8 -9 -8 -9 -9 -9 -9 -9 -10 -10 -10 -10 -10 -11 -11 -11 -11 -12 -12 -13 -13 -13 -12 -13 -13 -12 -12 -12 -12 -12 -11 -11 -11 -11 -11 -11 -11 -11 -11 -11 -11 -11 -10 -10 -10
-8 -8 -9 -9 -9 -9 -9 -9 -9 -9 -9 -9 -10 -10 -10 -10 -10 -10 -10 -10 -10 -11 -12 -12 -13 -13 -13 -13 -13 -13 -12 -12 -12 -12 -12 -11 -12 -11 -11 -11 -12 -11 -11 -11 -11 -11 -11 -10 -10
-9 -9 -9 -9 -9 -9 -9 -9 -9 -9 -9 -10 -9 -10 -10 -10 -10 -10 -10 -10 -10 -11 -12 -12 -12 -13 -13 -13 -13 -13 -13 -13 -13 -13 -12 -11 -12 -11 -11 -11 -12 -11 -11 -11 -11 -11 -11 -11 -11
-9 -9 -9 -9 -9 -9 -9 -9 -10 -10 -9 -10 -10 -10 -10 -10 -10 -10 -10 -11 -11 -11 -11 -12 -12 -13 -14 -14 -14 -13 -13 -13 -13 -13 -13 -12 -12 -12 -11 -11 -11 -12 -12 -11 -11 -11 -11 -11 -12
-9 -9 -9 -9 -9 -10 -10 -10 -10 -10 -10 -10 -10 -10 -10 -10 -10 -10 -11 -11 -11 -12 -12 -12 -13 -14 -15 -15 -15 -14 -14 -13 -14 -14 -13 -13 -12 -12 -12 -12 -11 -12 -12 -12 -11 -11 -11 -12 -11
-10 -10 -9 -10 -9 -10 -10 -10 -10 -10 -10 -10 -10 -10 -10 -10 -10 -10 -11 -11 -12 -13 -13 -14 -14 -15 -16 -17 -17 -16 -15 -14 -13 -14 -14 -14 -13 -12 -12 -12 -11 -10 -11 -12 -11 -11 -11 -12 -12
-10 -10 -10 -10 -10 -10 -10 -10 -10 -10 -10 -10 -10 -10 -10 -10 -10 -10 -11 -12 -13 -13 -14 -15 -15 -16 -17 -17 -17 -17 -17 -15 -14 -14 -14 -14 -14 -14 -14 -12 -12 -12 -11 -12 -12 -12 -11 -11 -13
-10 -10 -10 -10 -10 -10 -10 -10 -10 -11 -10 -10 -10 -10 -10 -10 -11 -11 -12 -12 -13 -14 -14 -15 -17 -18 -18 -18 -18 -18 -18 -17 -15 -15 -15 -14 -14 -15 -13 -13 -12 -12 -12 -12 -12 -12 -12 -11 -12
-10 -10 -10 -10 -10 -10 -10 -10 -10 -11 -11 -11 -10 -11 -11 -11 -11 -11 -12 -13 -14 -14 -15 -16 -18 -18 -18 -18 -18 -18 -18 -18 -17 -16 -15 -15 -14 -14 -13 -13 -13 -12 -12 -12 -12 -12 -12 -12 -12
-11 -10 -10 -10 -10 -11 -10 -10 -10 -10 -10 -11 -11 -11 -11 -11 -11 -12 -12 -14 -14 -15 -17 -18 -19 -19 -19 -18 -18 -18 -18 -18 -18 -17 -16 -15 -15 -14 -14 -13 -13 -13 -12 -13 -13 -13 -13 -12 -12
-11 -11 -11 -11 -11 -11 -11 -11 -11 -10 -11 -11 -11 -11 -11 -11 -11 -12 -12 -14 -14 -15 -17 -18 -19 -19 -18 -18 -18 -18 -18 -18 -18 -18 -17 -16 -15 -15 -14 -14 -14 -13 -13 -13 -13 -13 -12 -13 -12
-11 -11 -11 -11 -11 -11 -11 -11 -11 -11 -11 -11 -11 -11 -11 -11 -12 -12 -13 -14 -15 -16 -17 -18 -18 -18 -18 -18 -19 -19 -18 -18 -18 -18 -17 -17 -16 -15 -14 -14 -14 -14 -13 -13 -13 -13 -13 -12 -12
-11 -11 -11 -11 -11 -11 -11 -11 -11 -11 -11 -11 -11 -11 -12 -12 -12 -12 -14 -15 -16 -16 -17 -17 -17 -17 -18 -18 -19 -19 -19 -19 -18 -18 -18 -18 -17 -16 -15 -14 -14 -14 -13 -13 -13 -13 -13 -13 -12
-11 -11 -11 -11 -11 -11 -11 -11 -11 -11 -11 -11 -11 -12 -12 -12 -13 -13 -14 -16 -16 -17 -17 -17 -17 -18 -18 -19 -20 -20 -20 -19 -19 -19 -18 -18 -18 -17 -15 -15 -15 -14 -14 -13 -13 -13 -13 -13 -13
-11 -11 -11 -11 -11 -12 -12 -11 -12 -11 -11 -11 -11 -12 -12 -13 -13 -13 -14 -16 -16 -17 -17 -17 -18 -18 -19 -19 -20 -20 -20 -20 -20 -19 -19 -18 -18 -17 -16 -16 -15 -15 -15 -14 -13 -13 -13 -13 -13
-12 -11 -11 -11 -12 -12 -12 -12 -12 -12 -11 -11 -12 -12 -12 -12 -13 -13 -15 -16 -16 -17 -17 -17 -17 -17 -18 -19 -20 -20 -20 -20 -20 -20 -19 -19 -18 -18 -17 -16 -16 -15 -15 -15 -14 -13 -13 -13 -13
-12 -12 -12 -11 -12 -12 -12 -12 -12 -12 -12 -12 -12 -12 -12 -12 -13 -13 -14 -16 -16 -16 -17 -17 -18 -19 -19 -19 -20 -20 -21 -20 -21 -21 -20 -19 -19 -18 -17 -16 -16 -15 -15 -14 -14 -14 -13 -13 -13
-12 -12 -12 -12 -12 -12 -12 -12 -12 -12 -12 -12 -12 -12 -12 -13 -13 -14 -14 -16 -16 -16 -17 -18 -18 -18 -19 -20 -20 -21 -21 -21 -21 -21 -21 -19 -19 -19 -18 -17 -16 -15 -14 -14 -14 -14 -14 -13 -13
-13 -13 -12 -12 -12 -12 -12 -12 -12 -12 -12 -12 -13 -12 -12 -12 -13 -14 -14 -16 -16 -16 -17 -17 -16 -18 -19 -20 -20 -21 -20 -21 -21 -21 -21 -20 -19 -19 -18 -17 -16 -15 -14 -14 -14 -13 -14 -14 -14
-13 -12 -12 -12 -12 -12 -12 -12 -12 -12 -12 -12 -13 -12 -12 -13 -13 -14 -14 -15 -16 -16 -17 -17 -17 -17 -18 -19 -20 -21 -20 -20 -20 -20 -21 -20 -19 -19 -17 -17 -15 -14 -15 -14 -14 -14 -14 -14 -14
-12 -13 -13 -12 -12 -12 -12 -12 -12 -12 -12 -13 -13 -12 -12 -13 -14 -14 -14 -14 -16 -16 -16 -17 -17 -17 -17 -18 -19 -20 -20 -20 -20 -20 -19 -20 -19 -18 -17 -17 -16 -15 -14 -15 -14 -14 -14 -14 -14
-13 -13 -13 -12 -12 -12 -12 -12 -12 -12 -13 -13 -13 -13 -12 -13 -13 -14 -14 -14 -15 -16 -16 -16 -17 -17 -18 -18 -19 -19 -20 -19 -19 -19 -18 -19 -18 -17 -17 -16 -15 -15 -16 -16 -14 -14 -14 -14 -14
-13 -13 -13 -12 -13 -13 -13 -12 -13 -13 -13 -13 -13 -13 -12 -13 -13 -14 -14 -14 -14 -15 -16 -16 -17 -17 -17 -18 -18 -20 -19 -19 -19 -18 -18 -18 -17 -16 -16 -16 -15 -15 -15 -15 -15 -15 -14 -15 -14
-13 -13 -13 -12 -13 -13 -13 -13 -13 -13 -13 -13 -13 -13 -12 -12 -13 -14 -14 -14 -14 -14 -15 -16 -16 -16 -17 -17 -18 -18 -18 -18 -18 -18 -18 -18 -17 -16 -15 -15 -15 -15 -15 -14 -15 -15 -14 -14 -15
-13 -13 -13 -13 -13 -13 -13 -13 -13 -13 -13 -13 -13 -13 -13 -12 -13 -13 -14 -14 -14 -14 -14 -15 -16 -16 -16 -17 -17 -18 -18 -18 -18 -18 -18 -17 -17 -16 -16 -15 -16 -15 -15 -15 -15 -15 -14 -15 -14
-13 -13 -13 -13 -13 -13 -13 -13 -13 -13 -13 -13 -13 -13 -13 -12 -12 -13 -14 -14 -14 -14 -14 -14 -15 -15 -16 -16 -17 -17 -17 -18 -17 -17 -18 -17 -16 -16 -16 -15 -15 -14 -15 -14 -15 -15 -15 -15 -15
-13 -13 -13 -13 -13 -13 -13 -13 -14 -14 -13 -13 -13 -13 -13 -13 -13 -13 -13 -14 -14 -14 -14 -14 -15 -15 -15 -16 -16 -16 -15 -15 -15 -16 -16 -16 -16 -15 -15 -15 -15 -15 -15 -15 -15 -15 -15 -15 -15
-13 -13 -13 -13 -13 -13 -13 -13 -14 -14 -13 -13 -13 -13 -13 -13 -13 -13 -13 -14 -14 -14 -14 -14 -14 -15 -15 -15 -15 -16 -16 -15 -15 -15 -15 -15 -15 -15 -14 -15 -15 -15 -15 -15 -15 -15 -15 -15 -15
Height
5844 5844 5843 5842 5843 5839 5839 5838 5834 5834 5832 5829 5826 5824 5823 5821 5820 5819 5815 5812 5810 5808 5805 5803 5802 5800 5799 5799 5798 5797 5796 5797 5797 5797 5798 5798 5798 5799 5802 5802 5803 5805 5807 5806 5807 5810 5811 5814 5815
5843 5842 5841 5840 5840 5837 5837 5835 5834 5833 5831 5829 5825 5822 5820 5818 5815 5813 5810 5807 5805 5802 5799 5797 5795 5793 5792 5793 5792 5791 5790 5789 5790 5792 5793 5794 5794 5795 5797 5798 5801 5801 5804 5805 5804 5806 5808 5810 5812
5841 5840 5840 5838 5837 5836 5835 5834 5832 5830 5828 5826 5823 5821 5818 5816 5813 5810 5806 5801 5798 5795 5792 5790 5787 5785 5783 5783 5784 5784 5783 5783 5783 5783 5785 5789 5790 5790 5793 5793 5797 5798 5799 5801 5802 5803 5804 5806 5808
5841 5839 5838 5836 5834 5834 5832 5832 5831 5829 5826 5824 5820 5818 5814 5811 5808 5806 5801 5797 5792 5788 5783 5779 5777 5774 5773 5772 5774 5775 5775 5776 5775 5777 5779 5781 5784 5784 5788 5789 5790 5793 5795 5796 5799 5801 5801 5802 5804
5838 5837 5835 5833 5833 5832 5831 5830 5828 5825 5824 5821 5818 5815 5811 5807 5803 5800 5796 5790 5784 5779 5774 5769 5765 5762 5761 5760 5761 5765 5765 5769 5768 5771 5772 5772 5775 5778 5781 5784 5784 5788 5790 5791 5794 5796 5798 5799 5801
5836 5835 5834 5831 5830 5829 5829 5827 5825 5822 5820 5818 5814 5810 5807 5804 5800 5795 5790 5784 5778 5772 5765 5759 5755 5750 5747 5747 5748 5752 5755 5757 5759 5761 5764 5766 5769 5772 5775 5778 5779 5782 5785 5786 5789 5791 5793 5796 5798
5833 5833 5831 5829 5828 5827 5827 5825 5822 5818 5816 5814 5811 5808 5804 5799 5795 5790 5785 5778 5771 5764 5758 5751 5744 5739 5735 5732 5734 5736 5742 5747 5748 5750 5753 5755 5760 5765 5769 5773 5778 5778 5779 5782 5784 5787 5790 5792 5794
5830 5830 5829 5828 5826 5825 5823 5821 5818 5816 5813 5810 5806 5803 5800 5795 5790 5785 5779 5770 5762 5755 5748 5742 5736 5729 5724 5722 5721 5723 5726 5732 5736 5741 5743 5745 5750 5755 5762 5768 5773 5763 5768 5775 5779 5782 5785 5787 5791
5827 5827 5826 5825 5823 5822 5820 5818 5816 5813 5809 5806 5803 5799 5796 5790 5784 5779 5771 5763 5755 5747 5739 5732 5725 5721 5715 5712 5711 5711 5713 5717 5723 5729 5733 5737 5741 5744 5754 5759 5764 5769 5767 5770 5773 5778 5780 5782 5786
5824 5824 5822 5822 5820 5818 5817 5815 5813 5810 5807 5804 5800 5795 5790 5785 5778 5772 5764 5756 5748 5738 5728 5720 5713 5710 5707 5703 5701 5701 5703 5704 5709 5716 5722 5728 5734 5740 5746 5750 5756 5761 5759 5761 5767 5772 5776 5778 5782
5822 5822 5820 5818 5817 5815 5813 5812 5809 5806 5803 5800 5796 5792 5786 5780 5772 5766 5757 5746 5737 5726 5716 5708 5702 5699 5697 5695 5693 5692 5693 5695 5697 5704 5711 5718 5726 5732 5736 5741 5747 5752 5753 5755 5762 5766 5771 5776 5779
5819 5818 5817 5815 5814 5813 5810 5808 5805 5801 5799 5796 5792 5787 5780 5773 5766 5759 5749 5737 5726 5716 5704 5696 5692 5688 5686 5684 5683 5682 5683 5685 5687 5693 5699 5707 5715 5722 5727 5732 5737 5744 5750 5753 5758 5763 5767 5771 5773
5816 5816 5814 5813 5811 5809 5807 5804 5800 5798 5795 5792 5788 5782 5775 5768 5761 5753 5741 5730 5718 5705 5694 5687 5681 5677 5675 5674 5672 5671 5672 5674 5677 5683 5688 5695 5705 5712 5721 5725 5731 5737 5743 5749 5755 5758 5760 5766 5769
5814 5813 5811 5810 5808 5805 5804 5801 5797 5795 5792 5788 5784 5778 5772 5764 5756 5747 5735 5722 5711 5699 5687 5680 5675 5671 5668 5665 5660 5659 5660 5664 5668 5673 5679 5685 5696 5706 5713 5721 5727 5732 5737 5745 5750 5754 5758 5763 5764
5811 5810 5809 5807 5805 5802 5801 5798 5795 5792 5789 5785 5780 5774 5767 5760 5751 5741 5729 5716 5705 5692 5683 5676 5671 5666 5660 5654 5648 5648 5649 5654 5659 5664 5670 5678 5685 5697 5707 5714 5721 5725 5731 5738 5742 5747 5752 5757 5760
5808 5807 5805 5804 5802 5799 5797 5794 5792 5789 5786 5782 5777 5771 5764 5755 5746 5735 5722 5710 5699 5688 5679 5673 5666 5659 5653 5647 5642 5640 5642 5645 5650 5656 5662 5669 5678 5685 5692 5701 5713 5720 5725 5731 5735 5742 5749 5752 5756
5805 5803 5802 5801 5798 5796 5795 5791 5789 5786 5782 5779 5773 5768 5760 5751 5742 5730 5717 5706 5696 5685 5676 5667 5660 5653 5646 5641 5637 5636 5636 5638 5641 5646 5653 5661 5668 5677 5685 5696 5705 5713 5719 5725 5731 5738 5743 5748 5753
5800 5800 5799 5797 5796 5793 5791 5788 5786 5783 5780 5776 5771 5765 5757 5749 5739 5728 5714 5704 5693 5683 5673 5662 5653 5645 5638 5634 5632 5632 5631 5631 5633 5637 5643 5652 5660 5669 5678 5689 5698 5707 5714 5721 5726 5733 5739 5743 5747
5796 5794 5793 5793 5791 5790 5788 5785 5782 5780 5777 5772 5768 5762 5755 5747 5737 5726 5712 5702 5691 5680 5668 5657 5647 5637 5629 5627 5626 5626 5626 5625 5626 5628 5634 5644 5652 5660 5672 5681 5692 5703 5711 5717 5721 5728 5734 5739 5744
5792 5790 5790 5788 5787 5786 5783 5782 5779 5776 5774 5770 5765 5760 5753 5744 5734 5724 5711 5701 5690 5678 5665 5653 5641 5632 5625 5621 5620 5621 5622 5621 5620 5622 5626 5635 5644 5654 5665 5675 5686 5698 5706 5713 5718 5724 5730 5735 5740
5787 5786 5786 5786 5784 5782 5780 5780 5776 5773 5771 5767 5763 5758 5751 5742 5733 5723 5711 5699 5688 5676 5663 5652 5641 5631 5622 5617 5617 5617 5618 5620 5619 5619 5621 5628 5639 5649 5661 5672 5683 5694 5700 5706 5714 5721 5727 5732 5737
5783 5782 5781 5781 5780 5779 5777 5776 5773 5770 5768 5765 5761 5755 5749 5740 5732 5723 5712 5700 5689 5676 5664 5652 5642 5633 5622 5616 5614 5614 5615 5618 5619 5619 5620 5624 5634 5647 5659 5667 5679 5689 5697 5706 5713 5718 5724 5729 5734
5779 5777 5777 5777 5775 5774 5773 5772 5770 5767 5765 5762 5758 5754 5747 5740 5732 5724 5713 5701 5689 5678 5666 5654 5643 5633 5624 5617 5613 5613 5614 5617 5619 5620 5622 5627 5635 5646 5657 5666 5676 5686 5693 5701 5710 5715 5721 5727 5730
5774 5773 5773 5772 5771 5771 5769 5768 5767 5765 5763 5760 5756 5752 5747 5740 5732 5724 5714 5702 5691 5680 5669 5657 5644 5636 5628 5621 5616 5615 5616 5618 5621 5623 5626 5630 5639 5648 5658 5667 5676 5685 5692 5703 5708 5712 5718 5724 5727
5771 5770 5769 5770 5768 5768 5765 5764 5764 5761 5759 5758 5755 5751 5746 5740 5732 5724 5716 5705 5694 5683 5673 5662 5648 5640 5632 5627 5620 5616 5618 5620 5623 5625 5628 5634 5643 5650 5659 5669 5677 5685 5693 5701 5706 5711 5717 5722 5724
5767 5766 5766 5764 5765 5764 5762 5760 5759 5757 5757 5755 5753 5749 5744 5739 5732 5725 5718 5710 5698 5687 5677 5668 5657 5646 5637 5631 5627 5622 5620 5623 5627 5630 5634 5637 5643 5651 5660 5664 5675 5685 5692 5700 5705 5709 5714 5718 5721
5764 5762 5762 5760 5761 5761 5759 5757 5755 5754 5753 5752 5750 5747 5743 5739 5732 5726 5721 5713 5703 5693 5684 5673 5665 5655 5645 5638 5634 5630 5628 5628 5631 5635 5639 5642 5644 5647 5657 5666 5672 5678 5690 5698 5703 5707 5711 5716 5718
5759 5759 5758 5757 5756 5756 5756 5754 5751 5750 5748 5748 5747 5745 5741 5738 5733 5727 5722 5716 5708 5699 5690 5680 5671 5664 5654 5647 5643 5639 5637 5636 5638 5642 5646 5649 5651 5656 5663 5669 5676 5685 5691 5697 5701 5706 5709 5712 5715
5754 5752 5753 5753 5752 5749 5751 5751 5748 5745 5744 5744 5744 5743 5740 5737 5733 5729 5724 5719 5712 5704 5695 5688 5679 5672 5665 5658 5653 5649 5646 5645 5647 5649 5650 5652 5657 5660 5666 5673 5678 5684 5690 5695 5701 5704 5706 5710 5713
5747 5746 5746 5747 5749 5746 5746 5749 5743 5741 5741 5741 5741 5740 5738 5735 5733 5729 5725 5720 5715 5708 5701 5694 5687 5680 5673 5668 5662 5660 5656 5653 5651 5650 5651 5656 5660 5667 5670 5676 5680 5685 5689 5694 5697 5701 5704 5708 5711
Wind_Speed
8 11 9 8 10 12 14 14 17 17 14 13 14 15 17 20 23 28 29 30 32 33 32 32 33 33 31 29 30 31 31 31 30 26 28 27 26 26 27 28 28 27 26 25 23 22 20 19 20
8 8 8 6 8 9 12 15 16 18 19 17 17 20 22 23 26 29 34 35 36 36 36 35 35 36 36 33 32 34 34 32 34 31 29 31 31 29 29 30 29 28 28 27 26 24 22 22 21
11 9 9 8 8 10 12 15 18 20 21 21 21 22 23 26 28 30 34 37 40 40 39 41 42 40 40 39 37 36 37 35 37 35 34 32 34 32 31 32 31 30 28 28 27 26 25 24 23
14 12 10 12 11 11 12 14 18 21 21 23 24 25 28 30 31 34 34 35 39 41 43 44 45 47 46 45 42 39 39 38 39 39 35 37 37 36 33 36 34 31 29 29 28 28 26 26 24
13 14 13 13 15 16 17 18 19 21 24 26 26 28 31 33 34 36 32 35 38 40 38 39 42 46 51 51 49 43 41 40 42 40 40 37 34 36 39 37 39 33 32 32 32 30 29 27 27
16 14 16 16 16 17 19 22 23 22 25 28 29 30 33 34 36 37 35 36 37 40 41 40 39 41 46 52 54 51 44 43 43 45 41 37 36 39 38 41 41 40 35 29 28 29 29 28 26
18 17 15 17 18 20 22 22 24 25 25 29 30 32 34 37 39 41 40 40 41 42 41 40 41 37 40 44 52 54 49 46 47 47 48 43 31 40 32 35 39 43 38 39 32 30 31 29 26
17 16 15 17 19 20 22 25 25 25 26 28 31 33 36 39 41 45 44 45 44 45 46 43 40 38 36 36 38 48 50 50 51 50 51 49 41 37 37 32 32 26 28 34 31 31 31 31 25
17 17 16 17 19 20 22 24 24 25 26 29 32 34 38 41 44 46 50 48 46 47 51 46 39 35 32 35 36 35 43 48 53 52 52 49 53 44 30 36 45 39 37 42 39 31 33 31 28
16 17 18 19 19 20 20 22 23 25 26 28 33 35 39 43 46 49 50 51 49 50 53 47 38 32 29 30 34 36 36 41 49 45 44 49 47 36 36 43 44 44 34 30 34 37 23 31 22
17 18 18 19 19 19 19 22 24 23 26 30 34 38 41 44 49 51 51 51 52 56 51 45 42 36 32 30 32 33 37 39 44 45 45 46 46 40 49 39 41 40 41 29 31 31 25 17 23
18 17 17 17 18 19 20 23 24 23 26 30 35 39 42 46 51 53 54 52 56 58 48 44 40 38 36 33 32 35 35 39 41 43 44 48 38 56 28 34 40 41 47 33 29 28 24 24 17
19 17 18 18 20 21 21 23 22 23 26 31 37 40 43 48 51 54 54 54 55 53 47 40 37 33 30 34 35 35 38 36 41 41 42 44 48 38 46 33 26 40 42 41 29 21 25 25 24
19 18 19 20 21 21 21 22 21 25 29 33 36 39 43 48 49 53 51 51 48 45 38 33 27 25 29 35 40 37 37 36 39 41 43 40 51 46 36 36 23 33 29 32 35 30 29 33 35
19 19 20 20 21 21 21 20 23 27 30 33 36 39 43 46 49 51 53 48 41 38 35 28 26 27 32 35 33 31 32 41 37 39 41 43 44 52 44 51 43 35 33 40 40 35 27 33 27
19 19 20 21 21 20 20 20 23 26 28 32 36 39 43 44 48 49 48 43 40 38 37 34 31 32 32 33 25 23 25 31 42 39 40 41 42 46 43 49 41 32 39 43 33 29 40 28 26
21 21 21 22 22 20 19 20 22 25 28 32 35 39 41 44 48 49 46 40 40 41 39 38 36 36 34 30 19 17 20 26 32 44 43 45 43 42 49 37 43 39 37 32 48 34 30 31 24
22 22 22 22 21 20 19 22 20 24 27 31 34 36 38 43 46 48 44 40 41 43 43 40 38 37 30 27 17 14 15 22 28 36 48 46 45 44 46 50 46 41 37 40 39 47 34 32 29
23 22 22 22 22 21 20 22 23 24 27 31 33 34 36 41 44 48 46 40 41 46 45 40 39 37 29 21 16 17 15 15 20 31 42 49 47 44 45 47 51 41 31 36 36 36 37 38 41
23 23 23 22 23 20 21 21 23 24 26 29 30 32 35 39 42 46 47 39 41 47 43 46 39 34 28 15 15 15 13 11 13 20 34 47 50 47 42 42 50 43 34 32 30 34 30 32 31
22 22 23 22 22 21 21 20 23 23 25 26 28 29 33 38 40 44 49 39 42 47 42 46 36 35 28 15 12 11 12 8 6 11 20 44 50 47 41 38 51 48 52 34 30 33 28 29 27
20 21 21 21 21 21 20 20 20 22 23 24 26 26 31 35 39 41 49 44 39 46 43 45 35 23 24 15 8 9 8 8 5 9 13 25 43 44 40 39 50 47 46 39 30 30 28 25 25
19 21 21 20 21 21 20 20 20 20 20 22 23 24 28 31 34 39 46 49 39 43 45 50 40 25 22 18 5 2 6 7 6 6 13 20 25 28 31 33 39 44 40 39 21 26 30 29 31
19 20 20 19 20 19 20 19 17 18 18 20 21 21 25 29 34 35 41 48 42 39 45 47 40 30 22 22 9 3 3 4 6 5 13 24 22 20 31 28 27 29 30 26 14 12 34 31 27
20 20 21 20 18 18 19 19 18 18 17 18 19 18 21 26 30 34 37 44 51 42 41 48 43 36 25 20 14 5 5 5 7 8 19 27 30 31 31 25 23 22 20 19 21 19 16 19 27
19 21 21 22 19 16 18 19 18 18 17 16 17 15 18 24 27 32 33 38 45 51 40 42 46 38 29 21 18 12 13 8 5 13 23 35 25 21 35 33 33 28 21 16 13 11 18 16 16
21 21 21 23 23 19 18 17 17 18 17 15 15 13 14 21 25 28 30 32 40 44 49 39 41 40 35 23 20 17 17 16 11 12 19 31 10 29 34 29 23 23 24 18 17 12 13 22 22
25 22 23 24 25 23 18 19 17 18 18 14 14 12 11 16 23 25 28 30 33 37 43 48 38 39 37 29 23 20 19 22 18 13 14 8 27 27 34 37 36 26 25 24 20 16 15 17 20
27 25 24 25 26 27 20 20 20 20 19 15 13 13 12 11 16 21 25 27 31 32 34 42 46 36 35 34 30 24 19 16 9 4 3 7 19 28 31 28 24 28 27 19 21 17 14 16 18
30 28 26 26 25 27 25 18 24 22 21 17 12 13 12 11 11 16 20 24 27 29 32 31 39 43 35 31 30 25 20 13 5 5 6 8 15 25 22 26 26 24 20 21 19 20 19 19 21
Wind_Direction
319 329 349 359 354 7 4 3 355 348 340 335 327 329 333 330 332 333 332 326 319 312 303 296 293 291 289 282 276 271 268 265 265 258 249 252 246 242 248 243 238 242 237 229 233 231 231 232 236
297 313 320 330 331 356 355 359 348 343 343 343 343 344 341 339 335 333 330 325 319 309 301 294 289 285 283 279 272 270 268 261 259 259 256 246 250 244 243 245 243 241 237 234 231 231 231 233 234
281 285 296 295 312 335 344 349 344 339 340 344 341 340 337 338 336 338 331 325 320 310 301 293 289 283 278 277 271 265 265 264 258 253 254 253 245 245 242 241 243 243 241 236 232 231 229 231 230
280 278 281 286 292 314 327 333 336 336 336 336 337 335 337 338 340 343 335 329 321 311 305 296 286 279 275 272 269 262 259 259 258 256 250 255 253 237 239 241 240 245 244 237 234 231 229 231 231
270 277 280 282 292 300 315 316 328 334 336 334 333 335 336 339 342 341 336 338 333 328 311 300 290 279 269 266 265 259 256 250 253 255 254 246 250 254 235 235 240 236 241 248 241 232 233 230 231
280 278 283 285 287 297 307 313 318 328 332 329 329 333 334 339 341 339 339 339 337 331 325 313 301 286 271 260 258 257 251 249 246 244 245 254 243 247 246 231 235 237 237 241 232 235 230 235 235
286 280 279 278 285 291 302 308 316 320 327 326 329 332 336 341 340 337 336 337 338 333 326 319 313 301 285 269 253 252 248 245 245 242 239 235 256 243 233 235 234 245 235 241 242 240 234 230 234
287 283 281 284 289 290 297 307 311 314 322 327 328 329 337 341 339 336 337 338 335 331 324 321 315 305 291 279 264 249 246 240 243 241 240 241 249 221 226 223 211 216 230 232 237 240 238 229 234
286 287 289 290 291 293 295 299 305 312 321 323 326 328 334 338 337 335 336 337 329 325 321 319 310 301 297 280 272 259 246 240 238 241 239 238 241 237 242 223 215 223 241 239 237 242 239 231 229
287 290 293 292 292 294 297 300 305 313 319 321 326 331 335 336 336 335 333 333 328 322 318 314 299 295 291 288 276 263 254 243 237 236 237 235 239 245 238 232 230 217 228 216 237 232 246 225 203
288 291 294 295 295 298 303 306 307 315 323 324 328 330 333 335 334 336 333 331 325 320 318 301 294 293 290 285 279 271 256 248 239 229 228 229 229 228 227 237 236 207 218 226 227 224 228 236 232
290 294 298 295 293 297 303 308 315 317 324 321 326 330 334 337 337 338 335 330 326 323 313 305 296 288 284 284 279 269 262 249 241 232 220 225 217 227 225 232 232 232 219 220 238 240 242 233 252
285 290 295 298 297 297 302 311 316 322 324 324 326 331 335 338 337 338 336 332 330 324 317 312 305 297 287 282 275 272 256 250 241 235 227 221 213 220 225 216 238 236 230 220 226 228 226 240 237
284 288 293 298 299 297 305 313 317 320 321 323 326 330 335 340 337 341 336 335 334 331 328 322 315 304 295 287 282 267 253 243 241 233 226 221 214 224 227 224 228 227 216 220 218 224 223 242 226
282 289 291 296 297 297 304 310 316 318 320 325 328 332 339 340 340 343 339 340 342 345 342 334 321 311 298 300 288 268 252 239 235 233 227 224 218 213 211 228 229 224 220 208 222 219 223 236 222
287 289 292 295 298 296 303 310 313 317 321 327 332 337 341 343 343 344 346 347 347 347 342 333 323 312 303 309 291 268 254 245 233 229 226 220 219 216 205 230 220 206 226 215 206 218 218 236 240
285 285 290 296 298 293 299 303 311 317 324 328 335 340 344 346 347 347 350 349 350 349 342 332 322 316 314 310 288 268 255 249 241 228 223 220 219 218 213 212 223 228 231 236 213 215 209 217 221
284 284 285 289 297 292 297 300 308 317 322 329 336 343 346 346 351 352 354 353 352 349 344 336 330 325 318 301 279 269 270 244 238 232 223 220 221 219 218 214 216 220 222 232 218 216 210 207 227
282 279 280 286 292 293 293 296 306 315 322 330 336 346 349 347 354 357 357 354 354 351 346 343 336 331 326 297 288 262 280 269 241 229 222 218 220 218 217 215 214 213 219 228 218 226 225 235 239
285 281 278 281 286 291 290 294 301 311 321 328 337 348 350 350 358 -0 0 355 355 355 351 345 337 331 328 291 285 269 264 279 239 225 218 214 217 217 217 210 211 213 219 200 205 216 232 231 237
283 281 279 279 284 292 290 291 298 308 318 328 337 349 353 354 0 3 2 357 359 358 356 350 343 338 334 307 295 292 246 255 226 230 215 213 216 217 216 206 206 212 205 212 214 212 220 228 233
282 282 279 280 283 290 290 294 293 303 317 327 336 350 354 356 2 6 6 4 1 3 2 352 352 358 346 344 281 297 239 241 190 190 200 198 209 216 208 202 203 211 218 231 208 218 217 224 230
281 279 279 280 284 290 291 290 295 304 315 324 334 348 355 359 5 8 11 9 4 8 6 3 356 0 14 356 338 259 224 232 204 192 176 166 165 182 195 196 201 211 217 224 218 219 216 218 229
281 279 279 279 283 290 290 292 295 304 310 320 331 350 356 359 7 10 13 12 12 10 10 10 1 357 6 12 17 68 62 215 198 192 163 166 159 175 168 175 180 195 216 226 201 198 210 222 236
283 282 282 278 283 289 292 293 296 299 302 319 330 349 358 359 9 11 14 15 19 14 10 14 9 7 8 25 36 96 140 187 167 166 162 157 153 143 150 161 160 183 208 221 244 231 215 249 239
285 281 283 283 279 285 297 300 298 293 300 314 327 342 3 0 11 13 13 16 16 22 16 18 22 11 23 27 45 75 104 157 125 161 167 159 160 178 193 180 173 183 186 205 235 232 247 239 237
280 279 280 281 281 281 292 301 296 294 296 306 319 329 0 4 9 16 14 14 19 19 24 22 26 24 19 38 50 76 99 99 101 124 169 163 136 158 167 168 192 174 191 197 208 219 227 233 245
275 280 281 281 280 279 284 294 299 295 288 301 311 316 340 4 4 14 16 12 18 21 22 29 26 29 30 35 44 56 73 85 95 130 161 104 162 157 170 177 180 188 190 203 206 216 224 239 245
273 273 277 281 281 281 280 276 287 288 286 289 299 311 317 351 357 7 18 16 21 25 25 25 32 33 35 41 53 50 64 65 82 125 70 115 134 175 177 169 171 182 188 199 219 228 218 223 219
271 269 271 274 279 281 283 281 280 280 282 284 297 299 309 321 346 357 13 21 19 25 28 29 28 32 40 40 44 49 61 71 71 87 109 146 162 156 178 182 188 194 205 208 225 230 227 220 230